Tracking 29892 objects as of 21-Nov-2024
HD Live streaming from Space Station
objects crossing your sky now

STARLINK-30351

Track STARLINK-30351 now!
10-day predictions
STARLINK-30351 is classified as:


NORAD ID: 57738
Int'l Code: 2023-131G
Perigee: 565.6 km
Apogee: 566.9 km
Inclination: 43.0 °
Period: 95.8 minutes
Semi major axis: 6937 km
RCS: Unknown
Launch date: September 1, 2023
Source: United States (US)
Launch site: AIR FORCE EASTERN TEST RANGE (AFETR)
Your satellite tracking list
Your tracking list is empty




NASA's NSSDC Master Catalog

Two Line Element Set (TLE):
1 57738U 23131G   24325.98092076 -.00003063  00000-0 -21176-3 0  9991
2 57738  43.0073 226.0080 0000935 283.9003  76.1735 15.02539569 68557
Source of the keplerian elements: AFSPC